COSMOS 2592

Last updated on Sun Sep 14 2025 00:02:06 GMT+0000 (Coordinated Universal Time)

1 65268U 25182B 25254.40244434 .00030041 00000+0 14773-3 0 9990 2 65268 96.5858 187.5810 0015561 159.3294 200.8610 15.81949103 3316
UTC large
Height (km)
Speed (km/s)
/
Latitude / Longitude
Inclination (degrees)
Orbital Period (minutes)
Azimuth
Elevation
Range (km)
Doppler Factor

Next 0 passes for location: London (51.5072 / 0.1276)

Sorry there are no passes over London.